[[{"header":{"parameterUnit":"m.s-1","parameterCategory":1,"la1":30.2991,"la2":30.254,"lo1":-89.0895,"lo2":-89.0444,"dx":0.0017,"dy":0.0017,"nx":28,"ny":28,"refTime":"2022-11-18T15:00:00:Z","depth":0,"parameterNumber":2,"parameterNumberName":"U-component_of_WINDS"},"data":[0,0,0,0,0,0,0,0,0,0,0,0,0,0,0,0,0,0,0,0,0,0,0,0,0,0,0,0,0,0,0,0,0,0,0,0,0,0,0,0,0,0,0,0,0,0,0,0,0,0,0,0,0,0,0,0,0,0,-4.5278,-4.5279,0,-4.5322,-4.5323,-4.5323,-4.5181,-4.5177,-4.5173,-4.5169,-4.5214,-4.5219,-4.5224,0,0,0,0,0,0,0,0,0,0,0,0,0,-4.507,-4.5075,-4.5278,-4.5279,-4.5279,-4.5322,-4.5323,-4.5323,-4.5182,-4.5177,-4.5171,-4.5167,-4.5212,-4.5218,-4.5225,0,0,0,0,0,0,0,0,0,0,0,0,0,-4.5142,-4.5076,-4.5278,-4.5214,-4.5209,-4.5322,-4.5323,-4.5324,-4.5183,-4.5177,-4.517,-4.5164,-4.521,-4.5218,-4.5225,-4.5403,0,0,-4.5249,-4.5253,0,0,0,0,0,0,0,0,-4.5138,-4.515,-4.5223,-4.5219,-4.5213,-4.524,-4.5266,-4.535,-4.5185,-4.5193,-4.5168,-4.5161,-4.5228,-4.5234,-4.5256,-4.5405,-4.5407,-4.525,-4.5255,-4.5258,-4.526,0,0,0,0,0,0,0,-4.5134,-4.5147,-4.5296,-4.5224,-4.5218,-4.5182,-4.5186,-4.5281,-4.5246,-4.5192,-4.5181,-4.5189,-4.5224,-4.5249,-4.5256,-4.5408,-4.525,-4.5257,-4.5262,-4.5265,-4.5703,-4.571,0,0,0,0,0,0,-4.5137,-4.5144,-4.5294,-4.5297,-4.5159,-4.5192,-4.5195,-4.5238,-4.5244,-4.5239,-4.5194,-4.5182,-4.5239,-4.5247,-4.5257,-4.5465,-4.5258,-4.5265,-4.527,-4.5696,-4.5705,-4.5712,0,0,0,0,0,0,-4.5133,-4.5152,-4.5292,-4.5218,-4.5233,-4.5202,-4.5251,-4.5242,-4.5267,-4.5246,-4.5239,-4.5227,-4.5234,-4.5246,-4.5367,-4.5465,-4.5269,-4.5276,-4.5688,-4.5699,-4.5708,-4.5883,0,0,0,0,0,0,-4.5128,-4.5151,-4.5219,-4.522,-4.5238,-4.5403,-4.5257,-4.5247,-4.5281,-4.5265,-4.5275,-4.527,-4.523,-4.5357,-4.5375,-4.5472,-4.5282,-4.5679,-4.5693,-4.5705,-4.5868,-4.5898,-4.5923,0,0,0,0,0,-4.5121,-4.5267,-4.5223,-4.5242,-4.5322,-4.5409,-4.5419,-4.5369,-4.5289,-4.5357,-4.5343,-4.527,-4.5451,-4.537,-4.539,-4.5491,-4.5673,-4.5689,-4.5704,-4.5856,-4.5892,-4.5923,0,0,0,0,0,0,-4.5278,-4.5266,-4.5217,-4.5368,-4.5391,-4.5385,-4.5469,-4.5409,-4.5455,-4.5439,-4.5375,-4.5378,-4.5511,-4.5512,-4.5423,-4.5662,-4.5548,-4.5568,-4.5657,-4.5691,-4.5718,-4.5715,-4.5289,0,0,0,0,0,-4.533,-4.5403,-4.5387,-4.5522,-4.5536,-4.5501,-4.5537,-4.5497,-4.5517,-4.5526,-4.5521,-4.5545,-4.5606,-4.5648,-4.5704,-4.5867,-4.5867,-4.5946,-4.5973,-4.5996,-4.6015,-4.61,-4.6135,-4.5763,-4.5763,-4.5763,0,0,-4.5439,-4.5441,-4.5491,-4.5554,-4.5566,-4.5642,-4.551,-4.5596,-4.5651,-4.5539,-4.5654,-4.5651,-4.5672,-4.5815,-4.5878,-4.582,-4.6117,-4.6016,-4.6034,-4.6041,-4.612,-4.6155,-4.6187,-4.5774,-4.5772,-4.577,0,0,-4.5676,-4.5685,-4.5797,-4.5812,-4.5833,-4.5808,-4.5836,-4.5839,-4.5833,-4.5946,-4.5863,-4.5928,-4.6036,-4.6054,-4.6077,-4.6319,-4.6254,-4.6339,-4.6483,-4.6568,-4.6597,-4.6623,-4.6709,-4.6741,-4.6357,-4.6358,-4.6358,0,-4.5808,-4.592,-4.5863,-4.5955,-4.5984,-4.5885,-4.5999,-4.6016,-4.6054,-4.6077,-4.6011,-4.6144,-4.6151,-4.6297,-4.6356,-4.6378,-4.6406,-4.6338,-4.6597,-4.6623,-4.6646,-4.6727,-4.676,-4.6368,-4.6367,-4.6366,-4.6365,0,-4.6081,-4.616,-4.6248,-4.6287,-4.6327,-4.6429,-4.6387,-4.6434,-4.6389,-4.6371,-4.6488,-4.6492,-4.6547,-4.6578,-4.6536,-4.6718,-4.6681,-4.6608,-4.6492,-4.6692,-4.6768,-4.6799,-4.6383,-4.6379,-4.6376,-4.6374,0,0,-4.6421,-4.6425,-4.6459,-4.6475,-4.649,-4.6549,-4.6646,-4.6699,-4.674,-4.6769,-4.6849,-4.6941,-4.6873,-4.6899,-4.6858,-4.6932,-4.7123,-4.6849,-4.6848,-4.69,-4.7323,-4.7379,-4.7417,-4.7079,-4.7085,-4.7089,-4.7321,0,-4.6654,-4.682,-4.6771,-4.6938,-4.701,-4.6916,-4.7,-4.7018,-4.7003,-4.7061,-4.7044,-4.7111,-4.7016,-4.7031,-4.71,-4.7086,-4.7207,-4.7068,-4.7152,-4.7156,-4.7151,-4.7456,-4.7516,-4.7735,-4.7351,-4.7356,-4.7359,0,-4.6949,-4.6989,-4.7164,-4.7165,-4.7193,-4.727,-4.7314,-4.7371,-4.7388,-4.7372,-4.7402,-4.7345,-4.7439,-4.7322,-4.7451,-4.7357,-4.7388,-4.7386,-4.7393,-4.74,-4.7271,-4.7472,-4.7804,-4.7837,-4.7405,-4.7402,-4.7398,0,-4.718,-4.7277,-4.7394,-4.741,-4.7415,-4.7471,-4.7475,-4.7487,-4.7521,-4.7559,-4.7581,-4.763,-4.7657,-4.7696,-4.7653,-4.7572,-4.7788,-4.7668,-4.7778,-4.7779,-4.7829,-4.7826,-4.8171,-4.7848,-4.7847,-4.7847,-4.7846,0,-4.7446,-4.7556,-4.7497,-4.7569,-4.769,-4.7631,-4.7752,-4.7745,-4.7756,-4.7825,-4.7746,-4.7812,-4.7751,-4.7811,-4.7778,-4.789,-4.7902,-4.7892,-4.7882,-4.79,-4.7901,-4.792,-4.7904,-4.7855,-4.7853,-4.7852,-4.785,0,-4.7725,-4.7689,-4.781,-4.7804,-4.7805,-4.7894,-4.7889,-4.7955,-4.7933,-4.8021,-4.8038,-4.8005,-4.8072,-4.8033,-4.8101,-4.8078,-4.8224,-4.8192,-4.8218,-4.821,-4.8322,-4.8313,-4.8692,-4.8739,-4.8385,-4.8389,-4.8392,0,-4.7897,-4.798,-4.7983,-4.8023,-4.8032,-4.8098,-4.8133,-4.8078,-4.8117,-4.8142,-4.8205,-4.8265,-4.831,-4.8421,-4.8403,-4.8454,-4.8424,-4.8553,-4.8431,-4.8446,-4.8426,-4.8422,-4.843,-4.8578,-4.8582,-4.8586,-4.8588,0,-4.8208,-4.8186,-4.8239,-4.8286,-4.833,-4.8364,-4.8392,-4.8429,-4.8374,-4.8422,-4.8489,-4.8524,-4.8592,-4.8653,-4.8696,-4.8699,-4.8636,-4.8627,-4.8655,-4.8674,-4.8686,-4.8681,-4.8286,-4.8619,-4.8616,-4.8613,-4.8612,-4.8611,-4.8439,-4.8508,-4.852,-4.8582,-4.8597,-4.8624,-4.8685,-4.8671,-4.8726,-4.8778,-4.8742,-4.8821,-4.8835,-4.8886,-4.8898,-4.8958,-4.8906,-4.8947,-4.8957,-4.8969,-4.8984,-4.8676,-4.8966,-4.8965,-4.8964,-4.8963,-4.8963,0,-4.8746,-4.8749,-4.8806,-4.8847,-4.8895,-4.8829,-4.8856,-4.8901,-4.8972,-4.899,-4.9035,-4.9112,-4.9169,-4.9155,-4.9206,-4.9258,-4.923,-4.9273,-4.9269,-4.9271,-4.9028,-4.8999,-4.9295,-4.9295,-4.9295,-4.9295,-4.9295,-4.9295,-4.8912,-4.9025,-4.9004,-4.9123,-4.9124,-4.9201,-4.9222,-4.9247,-4.9261,-4.935,-4.9397,-4.9387,-4.9392,-4.9443,-4.9492,-4.9486,-4.9509,-4.9564,-4.9548,-4.9321,-4.9288,-4.9257,-4.9229,-4.9569,-4.957,-4.9786,-4.9788,-4.9789]},{"header":{"parameterUnit":"m.s-1","parameterCategory":1,"la1":30.2991,"la2":30.254,"lo1":-89.0895,"lo2":-89.0444,"dx":0.0017,"dy":0.0017,"nx":28,"ny":28,"refTime":"2022-11-18T15:00:00:Z","depth":0,"parameterNumber":3,"parameterNumberName":"V-component_of_WINDS"},"data":[0,0,0,0,0,0,0,0,0,0,0,0,0,0,0,0,0,0,0,0,0,0,0,0,0,0,0,0,0,0,0,0,0,0,0,0,0,0,0,0,0,0,0,0,0,0,0,0,0,0,0,0,0,0,0,0,0,0,-5.7353,-5.7353,0,-5.7409,-5.741,-5.741,-5.7305,-5.7302,-5.7298,-5.7295,-5.7348,-5.7353,-5.7357,0,0,0,0,0,0,0,0,0,0,0,0,0,-5.715,-5.7154,-5.7353,-5.7353,-5.7354,-5.7409,-5.741,-5.741,-5.7306,-5.7301,-5.7297,-5.7293,-5.7347,-5.7352,-5.7358,0,0,0,0,0,0,0,0,0,0,0,0,0,-5.7225,-5.7155,-5.7353,-5.7309,-5.7305,-5.7409,-5.741,-5.7411,-5.7307,-5.7301,-5.7296,-5.7291,-5.7345,-5.7352,-5.7359,-5.7506,0,0,-5.738,-5.7383,0,0,0,0,0,0,0,0,-5.7221,-5.7233,-5.7314,-5.7312,-5.7308,-5.7345,-5.7357,-5.7443,-5.7308,-5.7306,-5.7295,-5.7289,-5.7351,-5.7357,-5.7379,-5.7509,-5.7511,-5.7381,-5.7385,-5.7388,-5.739,0,0,0,0,0,0,0,-5.7216,-5.723,-5.7375,-5.7316,-5.7312,-5.7284,-5.7289,-5.7373,-5.7357,-5.7306,-5.7298,-5.7307,-5.7348,-5.7373,-5.738,-5.7512,-5.738,-5.7387,-5.7391,-5.7394,-5.7764,-5.7769,0,0,0,0,0,0,-5.7217,-5.7226,-5.7373,-5.7376,-5.7251,-5.7292,-5.7298,-5.7338,-5.7356,-5.7354,-5.7311,-5.7301,-5.7363,-5.7372,-5.7381,-5.7554,-5.7388,-5.7394,-5.7398,-5.7758,-5.7765,-5.7771,0,0,0,0,0,0,-5.7213,-5.7231,-5.7371,-5.7299,-5.7315,-5.7301,-5.7348,-5.7342,-5.7366,-5.736,-5.7356,-5.7339,-5.7359,-5.7371,-5.7476,-5.7555,-5.7398,-5.7404,-5.7751,-5.776,-5.7768,-5.7903,0,0,0,0,0,0,-5.7208,-5.723,-5.7287,-5.7301,-5.7319,-5.7467,-5.7352,-5.7347,-5.7379,-5.7367,-5.7385,-5.7383,-5.7356,-5.7466,-5.7483,-5.7561,-5.7409,-5.7744,-5.7755,-5.7765,-5.7891,-5.7915,-5.7935,0,0,0,0,0,-5.7201,-5.7322,-5.7291,-5.7309,-5.7391,-5.7471,-5.7481,-5.7449,-5.7386,-5.7442,-5.7438,-5.7382,-5.7543,-5.7478,-5.7496,-5.7578,-5.7739,-5.7752,-5.7765,-5.7881,-5.791,-5.7934,0,0,0,0,0,0,-5.7317,-5.7324,-5.7289,-5.7419,-5.7446,-5.7454,-5.7524,-5.7481,-5.7525,-5.7512,-5.7468,-5.7473,-5.7586,-5.7592,-5.7519,-5.772,-5.763,-5.7647,-5.7713,-5.774,-5.7762,-5.7758,-5.7415,0,0,0,0,0,-5.7358,-5.7425,-5.7426,-5.7541,-5.7556,-5.7538,-5.7572,-5.7545,-5.757,-5.758,-5.7583,-5.7609,-5.7665,-5.7703,-5.7754,-5.7891,-5.7893,-5.7956,-5.7978,-5.7996,-5.8011,-5.8083,-5.8111,-5.7813,-5.7813,-5.7812,0,0,-5.7443,-5.7455,-5.7499,-5.7564,-5.7582,-5.765,-5.7548,-5.7625,-5.7674,-5.7591,-5.7691,-5.7694,-5.7719,-5.7841,-5.7894,-5.7849,-5.8094,-5.8012,-5.8027,-5.8032,-5.8099,-5.8127,-5.8152,-5.7821,-5.782,-5.7818,0,0,-5.7633,-5.7649,-5.7746,-5.7766,-5.7794,-5.7781,-5.7804,-5.7819,-5.7818,-5.7917,-5.7856,-5.7914,-5.8012,-5.8032,-5.8055,-5.8252,-5.8202,-5.8269,-5.8383,-5.8454,-5.8477,-5.8498,-5.8567,-5.8593,-5.8284,-5.8285,-5.8285,0,-5.7734,-5.7836,-5.7801,-5.7882,-5.7912,-5.7841,-5.7938,-5.7958,-5.8001,-5.8022,-5.7971,-5.8092,-5.8104,-5.8229,-5.8277,-5.8298,-5.8322,-5.8267,-5.8477,-5.8497,-5.8516,-5.8582,-5.8608,-5.8293,-5.8292,-5.8291,-5.829,0,-5.796,-5.8031,-5.8106,-5.8151,-5.8188,-5.8277,-5.8253,-5.8296,-5.8265,-5.8257,-5.8358,-5.837,-5.8422,-5.8449,-5.842,-5.857,-5.8541,-5.8485,-5.8393,-5.8553,-5.8614,-5.8639,-5.8304,-5.8301,-5.8299,-5.8297,0,0,-5.8225,-5.8248,-5.8276,-5.8295,-5.8321,-5.8374,-5.8459,-5.8511,-5.8548,-5.8579,-5.8648,-5.8732,-5.868,-5.8706,-5.8678,-5.874,-5.8894,-5.8675,-5.8675,-5.8715,-5.9059,-5.9101,-5.9131,-5.8861,-5.8866,-5.8869,-5.9056,0,-5.8413,-5.856,-5.853,-5.8674,-5.8738,-5.8672,-5.8745,-5.8767,-5.8762,-5.8815,-5.8807,-5.8868,-5.8795,-5.881,-5.8868,-5.8863,-5.8962,-5.8849,-5.8923,-5.8926,-5.8919,-5.9163,-5.9208,-5.9384,-5.908,-5.9084,-5.9087,0,-5.8652,-5.8694,-5.8845,-5.8859,-5.8885,-5.8952,-5.8996,-5.9048,-5.9071,-5.9063,-5.9093,-5.9052,-5.9134,-5.9042,-5.9153,-5.9077,-5.9105,-5.9107,-5.9113,-5.9119,-5.9016,-5.9174,-5.9439,-5.9466,-5.9124,-5.9121,-5.9118,0,-5.883,-5.8923,-5.9025,-5.9044,-5.9063,-5.9111,-5.9121,-5.914,-5.9173,-5.9211,-5.9232,-5.9279,-5.9305,-5.9341,-5.9314,-5.925,-5.943,-5.9336,-5.9424,-5.9425,-5.9465,-5.9463,-5.9738,-5.9484,-5.9484,-5.9483,-5.9483,0,-5.9042,-5.9137,-5.9105,-5.9168,-5.9272,-5.9235,-5.9338,-5.934,-5.9357,-5.9417,-5.9362,-5.9419,-5.938,-5.9434,-5.9413,-5.9508,-5.952,-5.9515,-5.9508,-5.952,-5.952,-5.9538,-5.9524,-5.949,-5.9489,-5.9487,-5.9486,0,-5.9258,-5.9241,-5.9348,-5.9358,-5.9362,-5.9438,-5.9445,-5.9503,-5.9493,-5.957,-5.9586,-5.957,-5.9631,-5.9608,-5.9672,-5.9657,-5.9779,-5.9756,-5.9772,-5.9766,-5.9855,-5.9847,-6.0151,-6.0189,-5.9911,-5.9914,-5.9916,0,-5.9396,-5.9467,-5.9484,-5.9522,-5.9536,-5.9597,-5.963,-5.9597,-5.9634,-5.9665,-5.9719,-5.9775,-5.9818,-5.9917,-5.9911,-5.9959,-5.9937,-6.004,-5.9943,-5.9953,-5.9938,-5.9934,-5.994,-6.0059,-6.0062,-6.0065,-6.0067,0,-5.964,-5.9628,-5.9679,-5.9728,-5.977,-5.9806,-5.9837,-5.987,-5.9838,-5.9882,-5.9944,-5.9978,-6.0043,-6.0099,-6.0142,-6.015,-6.0103,-6.0097,-6.012,-6.0133,-6.0139,-6.0136,-5.9824,-6.0091,-6.0088,-6.0086,-6.0085,-6.0084,-5.982,-5.9881,-5.9902,-5.9961,-5.9981,-6.0011,-6.0066,-6.0063,-6.0115,-6.0166,-6.0143,-6.0214,-6.0234,-6.0287,-6.0302,-6.0356,-6.0315,-6.0349,-6.0357,-6.0366,-6.0378,-6.0131,-6.0364,-6.0363,-6.0362,-6.0362,-6.0361,0,-6.0062,-6.0073,-6.0127,-6.0173,-6.0219,-6.0172,-6.0203,-6.0244,-6.0309,-6.0332,-6.0376,-6.0446,-6.05,-6.0497,-6.0546,-6.059,-6.057,-6.0604,-6.06,-6.0603,-6.0411,-6.0386,-6.062,-6.062,-6.062,-6.062,-6.062,-6.062,-6.0193,-6.0292,-6.0282,-6.039,-6.0399,-6.047,-6.0492,-6.0519,-6.0537,-6.0619,-6.0664,-6.0662,-6.0675,-6.0724,-6.0771,-6.0769,-6.0789,-6.0832,-6.0821,-6.0642,-6.0617,-6.0592,-6.0568,-6.0836,-6.0837,-6.1008,-6.101,-6.1011]}]]